FW8351 Weather Reports


time (UTC)temp
F
wind
direction
speed
knots
gust
knots
rain 1hr
in
rain 24hr
in
rain mn
in
humidity
%
barometer
mb
20260506144555 52 111 0.0 0.0 0.00 0.00 0.00 71 1008.6
20260506143014 51 54 0.0 3.5 0.00 0.00 0.00 75 1008.7
20260506141558 51 76 0.0 1.7 0.00 0.00 0.00 80 1008.8
20260506140056 50 87 0.0 0.9 0.00 0.00 0.00 76 1009.1
20260506134526 50 233 0.0 0.0 0.00 0.00 0.00 69 1009.1
20260506133056 51 49 0.0 0.0 0.00 0.00 0.00 63 1008.9
20260506131549 51 178 0.0 11.3 0.00 0.00 0.00 54 1009.2
20260506130041 52 303 0.0 0.0 0.00 0.00 0.00 60 1009.1
20260506124524 53 252 0.0 6.1 0.00 0.00 0.00 56 1009.1
20260506123057 54 274 0.9 9.6 0.00 0.00 0.00 55 1008.9
20260506121553 55 120 1.7 7.0 0.00 0.00 0.00 53 1008.9
20260506120030 54 146 0.0 0.0 0.00 0.00 0.00 52 1009.1
20260506114539 54 154 0.0 0.9 0.00 0.00 0.00 57 1009.3
20260506113052 54 210 0.0 1.7 0.00 0.00 0.00 60 1009.3
20260506111549 54 282 0.0 0.0 0.00 0.00 0.00 58 1009.4
20260506110019 56 291 0.0 2.6 0.00 0.00 0.00 58 1009.6
20260506104507 55 212 1.7 5.2 0.00 0.00 0.00 59 1009.7
20260506103049 54 178 0.0 0.0 0.00 0.00 0.00 59 1010.0
20260506101535 53 249 0.0 0.9 0.00 0.00 0.00 61 1010.2
20260506100033 52 232 0.0 2.6 0.00 0.00 0.00 65 1010.4
20260506094523 50 195 0.0 1.7 0.00 0.00 0.00 64 1010.4
20260506093103 50 174 0.0 0.9 0.00 0.00 0.00 66 1010.3
20260506091548 49 166 0.0 0.0 0.00 0.00 0.00 72 1010.3
20260506090040 48 187 0.0 0.0 0.00 0.00 0.00 80 1010.4
20260506084515 46 272 0.0 0.0 0.00 0.00 0.00 86 1010.4
20260506083056 45 230 0.0 0.0 0.00 0.00 0.00 87 1010.3
20260506081538 44 161 0.0 0.0 0.00 0.00 0.00 92 1010.3
20260506073102 40 188 0.0 0.0 0.00 0.00 0.00 94 1010.3
20260506071526 40 188 0.0 0.0 0.00 0.00 0.00 95 1010.2
20260506061532 38 39 0.0 0.0 0.00 0.00 0.00 95 1009.9
20260506050113 37 39 0.0 0.0 0.00 0.00 0.00 94 1009.3
20260506044546 38 39 0.0 0.0 0.00 0.00 0.00 94 1009.1
20260506043024 38 39 0.0 0.0 0.00 0.00 0.00 94 1009.1
20260506041515 37 39 0.0 0.0 0.00 0.00 0.00 94 1008.9
20260506040054 37 39 0.0 0.0 0.00 0.00 0.00 94 1008.9
20260506034512 37 39 0.0 0.0 0.00 0.00 0.00 93 1008.9
20260506033121 38 39 0.0 0.0 0.00 0.00 0.00 93 1008.7
20260506031525 38 39 0.0 0.0 0.00 0.00 0.00 94 1008.8
20260506030033 38 39 0.0 0.0 0.00 0.00 0.00 94 1008.7
20260506024515 38 39 0.0 0.0 0.00 0.00 0.00 94 1008.8
20260506023042 38 39 0.0 0.0 0.00 0.00 0.00 94 1008.8
20260506021550 38 39 0.0 0.0 0.00 0.00 0.00 94 1008.9
20260506020041 38 39 0.0 0.0 0.00 0.00 0.00 94 1009.0
20260506014528 37 39 0.0 0.0 0.00 0.00 0.00 93 1008.9
20260506013015 37 39 0.0 0.0 0.00 0.00 0.00 93 1009.0
20260506011553 37 39 0.0 0.0 0.00 0.00 0.00 93 1009.0
20260506010110 37 39 0.0 0.0 0.00 0.00 0.00 93 1009.1
20260506004540 37 39 0.0 0.0 0.00 0.00 0.00 92 1009.2
20260506003006 37 39 0.0 0.0 0.00 0.00 0.00 93 1009.4
20260506001548 38 39 0.0 0.0 0.00 0.00 0.00 93 1009.4
20260506000025 38 39 0.0 0.0 0.00 0.00 0.00 92 1009.4
20260505234509 38 39 0.0 0.0 0.00 0.00 0.00 92 1009.4
20260505233009 39 39 0.0 0.0 0.00 0.00 0.00 92 1009.6
20260505231604 39 39 0.0 0.0 0.00 0.00 0.00 92 1009.6
20260505230021 40 39 0.0 0.0 0.00 0.00 0.00 92 1009.7
20260505224540 40 39 0.0 0.0 0.00 0.00 0.00 92 1009.9
20260505223103 40 39 0.0 0.0 0.00 0.00 0.00 92 1010.2
20260505221507 40 39 0.0 0.0 0.00 0.00 0.00 92 1010.1
20260505220013 40 45 0.0 0.0 0.00 0.00 0.00 92 1010.2
20260505214607 40 45 0.0 0.0 0.00 0.00 0.00 92 1010.4
20260505213041 41 45 0.0 0.0 0.00 0.00 0.00 92 1010.3
20260505211524 41 45 0.0 0.0 0.00 0.00 0.00 92 1010.3
20260505210018 41 45 0.0 0.0 0.00 0.00 0.00 92 1010.3
20260505204502 40 45 0.0 0.0 0.00 0.00 0.00 91 1010.1
20260505203044 41 46 0.0 0.0 0.00 0.00 0.00 91 1009.8
20260505201506 41 46 0.0 0.0 0.00 0.00 0.00 91 1009.4
20260505200027 41 46 0.0 0.0 0.00 0.00 0.00 91 1009.3
20260505194502 41 46 0.0 0.0 0.00 0.00 0.00 91 1009.2
20260505193045 41 46 0.0 0.0 0.00 0.00 0.00 91 1009.3
20260505191509 42 39 0.0 0.0 0.00 0.00 0.00 90 1009.2
20260505190044 42 39 0.0 0.9 0.00 0.00 0.00 90 1009.0
20260505184538 42 350 0.0 0.9 0.00 0.00 0.00 90 1008.7
20260505183035 43 350 0.0 0.9 0.00 0.00 0.00 90 1008.6
20260505181534 43 320 0.0 0.0 0.00 0.00 0.00 91 1008.7
20260505180026 43 320 0.0 0.0 0.00 0.00 0.00 91 1008.6
20260505174545 43 320 0.0 0.0 0.00 0.01 0.00 91 1008.6
20260505173012 43 83 0.0 0.0 0.00 0.01 0.00 91 1009.1
20260505171557 43 118 0.0 0.9 0.00 0.01 0.00 91 1009.4
20260505170053 42 90 0.0 0.9 0.00 0.01 0.00 89 1009.3
20260505164545 44 133 0.9 5.2 0.00 0.01 0.00 87 1009.2
20260505163111 45 220 0.9 11.3 0.00 0.01 0.00 82 1008.9
20260505161549 48 229 0.9 12.2 0.00 0.01 0.00 76 1008.0
20260505153059 54 226 0.9 9.6 0.00 0.01 0.00 56 1007.5
20260505151516 54 143 0.0 7.8 0.00 0.01 0.00 63 1007.3